Rock Falls, IL

1:48 AM CST on February 09, 2016 (GMT -0600)
Whiteside County-Bittorf

Weather History for KSQI - October, 2013

Change the Weather History Date:

Wednesday, October 16, 2013

  Actual Average Record
Temperature  
Mean Temperature - -  
Max Temperature - 60 °F 78 °F (2010)
Min Temperature - 38 °F 30 °F (2002)
Moisture  
Dew Point -    
Average Humidity    
Maximum Humidity    
Minimum Humidity    
Precipitation  
Precipitation 0.00 in - - ()
Sea Level Pressure  
Sea Level Pressure 29.91 in    
Wind  
Wind Speed 13 mph (West)    
Max Wind Speed 17 mph    
Max Gust Speed 25 mph    
Visibility 10 miles    
Events      
Averages and records for this station are not official NWS values.
T = Trace of Precipitation, MM = Missing Value Source: NWS Daily Summary

Daily Weather History Graph

Daily Weather History Graph

Search for Another Location

Airport or City:

Trip Planner

Search our weather history database for the weather conditions in past years. The results will help you decide how hot, cold, wet, or windy it might be!

Date:

Astronomy

Oct. 16, 2013 Rise Set
Actual Time 7:12 AM CDT 6:15 PM CDT
Civil Twilight 6:44 AM CDT 6:43 PM CDT
Nautical Twilight 6:11 AM CDT 7:15 PM CDT
Astronomical Twilight 5:39 AM CDT 7:47 PM CDT
Moon 4:56 PM CDT (10/16) 4:38 AM CDT (10/16)
Length of Visible Light 11h 59m
Length of Day
11h 03m
Waxing Gibbous, 94% of the Moon is Illuminated
Oct 16
Waxing Gibbous
Oct 18
Full
Oct 26
Last Quarter
Nov 3
New
Nov 9
First Quarter

Hourly Weather History & Observations

Time (CDT) Temp. Dew Point Humidity Pressure Visibility Wind Dir Wind Speed Gust Speed Precip Events Conditions
12:15 AM - - N/A% 29.87 in 10.0 mi West 8.1 mph - N/A   Mostly Cloudy
12:35 AM - - N/A% 29.86 in 10.0 mi WSW 6.9 mph - N/A   Overcast
12:55 AM - - N/A% 29.87 in 10.0 mi West 15.0 mph - N/A   Overcast
1:15 AM - - N/A% 29.87 in 10.0 mi West 16.1 mph 24.2 mph N/A   Overcast
1:35 AM - - N/A% 29.87 in 10.0 mi West 16.1 mph - N/A   Overcast
1:55 AM - - N/A% 29.87 in 10.0 mi West 12.7 mph 18.4 mph N/A   Overcast
2:15 AM - - N/A% 29.87 in 10.0 mi West 15.0 mph 20.7 mph N/A   Overcast
2:35 AM - - N/A% 29.87 in 10.0 mi West 13.8 mph - N/A   Overcast
2:55 AM - - N/A% 29.87 in 10.0 mi West 15.0 mph 19.6 mph N/A   Overcast
3:15 AM - - N/A% 29.86 in 10.0 mi West 15.0 mph - N/A   Overcast
3:35 AM - - N/A% 29.86 in 10.0 mi West 17.3 mph 25.3 mph N/A   Overcast
3:55 AM - - N/A% 29.85 in 10.0 mi West 16.1 mph 19.6 mph N/A   Overcast
4:15 AM - - N/A% 29.86 in 10.0 mi West 16.1 mph - N/A   Overcast
4:35 AM - - N/A% 29.86 in 10.0 mi West 13.8 mph 18.4 mph N/A   Overcast
4:55 AM - - N/A% 29.86 in 10.0 mi West 15.0 mph 19.6 mph N/A   Overcast
5:15 AM - - N/A% 29.86 in 10.0 mi West 13.8 mph 23.0 mph N/A   Overcast
5:35 AM - - N/A% 29.86 in 10.0 mi West 16.1 mph - N/A   Overcast
5:55 AM - - N/A% 29.86 in 10.0 mi West 16.1 mph 20.7 mph N/A   Overcast
6:15 AM - - N/A% 29.87 in 10.0 mi West 16.1 mph 21.9 mph N/A   Overcast
6:35 AM - - N/A% 29.87 in 10.0 mi West 13.8 mph 23.0 mph N/A   Overcast
6:55 AM - - N/A% 29.87 in 10.0 mi West 16.1 mph - N/A   Overcast
7:15 AM - - N/A% 29.87 in 10.0 mi West 11.5 mph - N/A   Overcast
7:35 AM - - N/A% 29.87 in 10.0 mi West 15.0 mph - N/A   Overcast
7:55 AM - - N/A% 29.88 in 10.0 mi West 11.5 mph - N/A   Overcast
8:15 AM - - N/A% 29.89 in 10.0 mi West 12.7 mph - N/A   Overcast
8:35 AM - - N/A% 29.89 in 10.0 mi West 12.7 mph - N/A   Overcast
8:55 AM - - N/A% 29.90 in 10.0 mi West 13.8 mph - N/A   Overcast
9:15 AM - - N/A% 29.91 in 10.0 mi West 13.8 mph - N/A   Overcast
9:35 AM - - N/A% 29.91 in 10.0 mi West 15.0 mph 19.6 mph N/A   Overcast
9:55 AM - - N/A% 29.91 in 10.0 mi West 15.0 mph 19.6 mph N/A   Overcast
10:15 AM - - N/A% 29.91 in 10.0 mi West 11.5 mph - N/A   Overcast
10:35 AM - - N/A% 29.92 in 10.0 mi West 15.0 mph - N/A   Overcast
10:55 AM - - N/A% 29.92 in 10.0 mi West 16.1 mph - N/A   Overcast
11:15 AM - - N/A% 29.92 in 10.0 mi West 13.8 mph - N/A   Overcast
11:35 AM - - N/A% 29.92 in 10.0 mi West 11.5 mph - N/A   Overcast
11:55 AM - - N/A% 29.93 in 10.0 mi West 16.1 mph - N/A   Overcast
12:15 PM - - N/A% 29.92 in 10.0 mi West 12.7 mph - N/A   Overcast
12:35 PM - - N/A% 29.92 in 10.0 mi West 13.8 mph - N/A   Overcast
12:55 PM - - N/A% 29.92 in 10.0 mi West 15.0 mph 18.4 mph N/A   Overcast
1:15 PM - - N/A% 29.92 in 10.0 mi West 15.0 mph 20.7 mph N/A   Overcast
1:35 PM - - N/A% 29.91 in 10.0 mi West 16.1 mph 20.7 mph N/A   Overcast
1:55 PM - - N/A% 29.91 in 10.0 mi West 16.1 mph - N/A   Overcast
2:15 PM - - N/A% 29.91 in 10.0 mi West 13.8 mph - N/A   Overcast
2:35 PM - - N/A% 29.91 in 10.0 mi West 17.3 mph 20.7 mph N/A   Overcast
2:55 PM - - N/A% 29.91 in 10.0 mi West 16.1 mph - N/A   Overcast
3:15 PM - - N/A% 29.91 in 10.0 mi WNW 13.8 mph 17.3 mph N/A   Overcast
3:35 PM - - N/A% 29.91 in 10.0 mi WNW 12.7 mph - N/A   Overcast
3:55 PM - - N/A% 29.91 in 10.0 mi West 13.8 mph - N/A   Overcast
4:15 PM - - N/A% 29.91 in 10.0 mi West 16.1 mph - N/A   Overcast
4:35 PM - - N/A% 29.91 in 10.0 mi West 12.7 mph - N/A   Overcast
4:55 PM - - N/A% 29.91 in 10.0 mi WNW 11.5 mph - N/A   Overcast
5:15 PM - - N/A% 29.92 in 9.0 mi WNW 11.5 mph - N/A   Overcast
5:35 PM - - N/A% 29.92 in 10.0 mi WNW 9.2 mph - N/A   Overcast
5:55 PM - - N/A% 29.92 in 10.0 mi WNW 10.4 mph - N/A   Overcast
6:15 PM - - N/A% 29.92 in 10.0 mi WNW 10.4 mph - N/A   Overcast
6:35 PM - - N/A% 29.93 in 10.0 mi West 10.4 mph - N/A   Overcast
6:55 PM - - N/A% 29.93 in 10.0 mi West 11.5 mph - N/A   Overcast
7:15 PM - - N/A% 29.94 in 10.0 mi West 9.2 mph - N/A   Overcast
7:35 PM - - N/A% 29.94 in 10.0 mi West 9.2 mph - N/A   Overcast
7:55 PM - - N/A% 29.94 in 10.0 mi West 9.2 mph - N/A   Overcast
8:15 PM - - N/A% 29.94 in 10.0 mi West 8.1 mph - N/A   Overcast
8:35 PM - - N/A% 29.95 in 10.0 mi West 9.2 mph - N/A   Overcast
8:55 PM - - N/A% 29.95 in 10.0 mi West 9.2 mph - N/A   Overcast
9:15 PM - - N/A% 29.96 in 10.0 mi West 9.2 mph - N/A   Overcast
9:35 PM - - N/A% 29.95 in 10.0 mi WNW 10.4 mph - N/A   Overcast
9:55 PM - - N/A% 29.96 in 10.0 mi West 9.2 mph - N/A   Overcast
10:15 PM - - N/A% 29.96 in 10.0 mi West 8.1 mph - N/A   Overcast
10:35 PM - - N/A% 29.95 in 10.0 mi WNW 8.1 mph - N/A   Overcast
10:55 PM - - N/A% 29.95 in 10.0 mi West 8.1 mph - N/A   Overcast
11:15 PM - - N/A% 29.95 in 10.0 mi West 8.1 mph - N/A   Overcast
11:35 PM - - N/A% 29.95 in 10.0 mi West 9.2 mph - N/A   Overcast
11:55 PM - - N/A% 29.93 in 10.0 mi WNW 6.9 mph - N/A   Overcast